Regional Weather Roundup
Issued by NWS Little Rock, AR

Home | Current Version | Previous Version | Graphics & Text | Print | Product List | Glossary On
Versions: 1 2 3 4 5 6 7 8 9 10 11 12 13 14 15 16 17 18 19 20 21 22 23 24 25 26 27 28 29 30 31
000
ASUS44 KLZK 241405
RWRLZK

WEATHER ROUNDUP FOR ARKANSAS
NATIONAL WEATHER SERVICE LITTLE ROCK AR
900 AM CDT FRI MAR 24 2017

NOTE: "FAIR" INDICATES FEW OR NO CLOUDS BELOW 12,000 FEET WITH NO
SIGNIFICANT WEATHER AND/OR OBSTRUCTIONS TO VISIBILITY.

ARZ001-003-010-029-241500-
NORTHWEST ARKANSAS

CITY           SKY/WX    TMP DP  RH WIND       PRES   REMARKS
FAYETTEVILLE   MOSUNNY   63  51  65 S23G38    29.93S
FORT SMITH     CLOUDY    68  52  56 S8        29.95F
HARRISON       CLOUDY    64  50  60 S18G32    29.98R
BENTONVILLE    MOSUNNY   66  46  48 S13G24    29.94S
ROGERS         MOSUNNY   66  48  52 S20G28    29.95R
SILOAM SPGS    MOSUNNY   64  46  52 S18G31    29.92S
HIGHFILL       PTSUNNY   67  49  52 S20G33    29.93R
SPRINGDALE     SUNNY     64  48  55 S17G29    29.96R
$$

ARZ004-005-016-241500-
NORTH CENTRAL ARKANSAS

CITY           SKY/WX    TMP DP  RH WIND       PRES   REMARKS
BATESVILLE     CLOUDY    66  57  72 S8        30.10S
FLIPPIN        CLOUDY    66  48  52 S14G28    29.99F
MTN HOME       CLOUDY    66  53  63 SW21G31   30.01S
$$

ARZ040-041-241500-
WEST CENTRAL ARKANSAS

CITY           SKY/WX    TMP DP  RH WIND       PRES   REMARKS
MENA           CLOUDY    68  63  83 SE9G17    29.98F
MOUNT IDA      PTSUNNY   67  58  72 VRB7      30.02S
$$

ARZ009-017-025-026-028-241500-
NORTHEAST ARKANSAS

CITY           SKY/WX    TMP DP  RH WIND       PRES   REMARKS
CORNING        FAIR      66  59  77 S16       30.12R
JONESBORO      CLOUDY    64  58  80 S7        30.14R
NEWPORT        CLOUDY    65  60  84 S15       30.12S
WALNUT RIDGE   PTSUNNY   64  55  72 S22G29    30.12R
BLYTHEVILLE    CLOUDY    67  61  81 S9        30.14R
$$

ARZ022-023-033-042-044-241500-
CENTRAL ARKANSAS

CITY           SKY/WX    TMP DP  RH WIND       PRES   REMARKS
LITTLE ROCK    CLOUDY    66  62  87 S8        30.10R
N LITTLE ROCK    N/A     66  60  82 S6        30.09S
JACKSONVILLE   CLOUDY    67  60  80 SE8       30.09R
CONWAY           N/A     68  59  73 SE9       30.07S
SEARCY         CLOUDY    67  62  84 S12       30.12R
HOT SPRINGS    CLOUDY    66  58  75 SE8       30.07S
RUSSELLVILLE   CLOUDY    66  54  65 S7        30.04S
CLINTON        FAIR      66  59  77 VRB5G12   30.08R
$$

ARZ036-241500-
EAST ARKANSAS

CITY           SKY/WX    TMP DP  RH WIND       PRES   REMARKS
WEST MEMPHIS   CLOUDY    68  61  78 S13       30.14R
$$

ARZ050-053-066-070-073-241500-
SOUTHWEST ARKANSAS

CITY           SKY/WX    TMP DP  RH WIND       PRES   REMARKS
ARKADELPHIA    FAIR      67  61  81 SE3       30.08S
CAMDEN         CLOUDY    68  59  73 S8        30.09S
TEXARKANA      PTSUNNY   66  61  84 SE10      30.04S
EL DORADO      PTSUNNY   67  62  84 SE7       30.10R
DE QUEEN       CLOUDY    64  60  87 SE9       29.98F
$$

ARZ056-057-069-241500-
SOUTHEAST ARKANSAS

CITY           SKY/WX    TMP DP  RH WIND       PRES   REMARKS
PINE BLUFF     CLOUDY    68  61  78 S10       30.12R
STUTTGART      CLOUDY    66  54  63 S14       30.13F
MONTICELLO     CLOUDY    68  61  78 S8        30.13R

$$






USA.gov is the U.S. government's official web portal to all federal, state and local government web resources and services.